Home   Weather   Buxtehude   Past weeks

Flag for Germany Past Weather in Buxtehude, Lower Saxony, Germany — Yesterday and Last 2 Weeks

Now
61 °F

Passing clouds.


Feels Like: 61 °F
Forecast: 58 / 69 °F
Wind: 13 mph from Southwest

Location: Hamburg-Finkenwerder

Current Time: Sep 28, 2016 at 7:12:52 AM

Latest Report: Sep 28, 2016 at 6:20 AM


Visibility: N/A

Pressure: 30.12 "Hg

Humidity: 68%

Dew Point: 50 °F

Location of BuxtehudeLocation

Past Weather in Buxtehude — Graph

°F

Buxtehude Temperature Yesterday

Maximum temperature yesterday: 72 °F (at 3:50 PM)
Minimum temperature yesterday: 50 °F (at 7:50 AM)
Average temperature yesterday: 63 °F

High & Low Weather Summary for the Past Weeks

 TemperatureHumidityPressure
High88 °F (Sep 13, 2:20 PM)100% (Sep 27, 5:50 AM)30.30 "Hg (Sep 27, 5:50 AM)
Low50 °F (Sep 19, 5:20 AM)31% (Sep 13, 3:50 PM)29.89 "Hg (Sep 16, 5:50 AM)
Average66 °F68%30.10 "Hg
* Reported Sep 13 5:50 AM — Sep 28 5:50 AM, Buxtehude, Weather by CustomWeather, © 2016

Note: Actual official high and low records may vary slightly from our data, if they occured in-between our weather recording intervals... More about our weather records

Advertising

Buxtehude Weather History for the Previous 24 Hours

Scroll right to see more
 ConditionsComfort  
Time TempWeatherWind HumidityBarometerVisibility
5:50 AM
Wed, Sep 28
61 °FPassing clouds.12 mph63%30.12 "HgN/A
8:20 PM
Tue, Sep 27
59 °FClear.6 mph77%30.24 "Hg10 mi
7:50 PM61 °FClear.5 mph77%30.27 "Hg10 mi
7:20 PM63 °FClear.3 mph73%30.27 "Hg10 mi
6:50 PM66 °FSunny.5 mph60%30.27 "Hg10 mi
6:20 PM68 °FSunny.5 mph56%30.24 "Hg10 mi
5:50 PM70 °FPassing clouds.5 mph50%30.24 "HgN/A
5:20 PM70 °FPassing clouds.7 mph46%30.24 "HgN/A
4:50 PM68 °FSunny.8 mph53%30.27 "Hg10 mi
4:20 PM70 °FSunny.3 mph46%30.27 "Hg10 mi
3:50 PM72 °FPassing clouds.3 mph47%30.27 "HgN/A
3:20 PM68 °FScattered clouds.3 mph53%30.27 "HgN/A
2:50 PM70 °FSunny.5 mph53%30.27 "Hg10 mi
2:20 PM70 °FPassing clouds.5 mph53%30.27 "HgN/A
1:50 PM68 °FPassing clouds.5 mph56%30.30 "HgN/A
1:20 PM68 °FPassing clouds.3 mph56%30.30 "HgN/A
12:50 PM68 °FPassing clouds.3 mph56%30.30 "HgN/A
12:20 PM68 °FPassing clouds.2 mph60%30.30 "HgN/A
11:50 AM68 °FPassing clouds.5 mph60%30.30 "HgN/A
11:20 AM66 °FSunny.2 mph68%30.30 "Hg10 mi
10:50 AM64 °FSunny.2 mph78%30.30 "Hg10 mi
10:20 AM61 °FSunny.2 mph88%30.30 "Hg10 mi
9:50 AM61 °FSunny.No wind83%30.30 "Hg10 mi
9:20 AM55 °FSunny.2 mph94%30.30 "Hg10 mi
8:50 AM54 °FSunny.1 mph94%30.27 "Hg10 mi
8:20 AM50 °FSunny.2 mph100%30.27 "Hg10 mi
7:50 AM50 °FSunny.2 mph100%30.27 "Hg10 mi
7:20 AM52 °FSunny.2 mph94%30.27 "Hg6 mi
Weather by CustomWeather, © 2016

See weather overviewHow to use our weather pages